Location: Spruce Knob
(38.6995°N, 79.5330°W)
Time: 20:21:13
(UTC-04:00)

A-11 Canister half - Pass Details

Date: 02 February 2022
Orbit: 1513 x 1686 km, 47.2° (Epoch: 26 May)

Event Time Altitude Azimuth Distance (km) Brightness Sun altitude
Rises 21:20:57 0° 300° (WNW) 4,690 12.3 -42.9°
Reaches altitude 10° 21:24:04 10° 297° (WNW) 3,692 11.6 -43.5°
Enters shadow 21:30:50 48° 266° (W) 1,902 9.5 -44.8°
Maximum altitude 21:33:04 58° 221° (SW) 1,716 - -45.2°
Drops below altitude 10° 21:42:02 10° 145° (SE) 3,673 - -46.9°
Sets 21:45:07 0° 141° (SE) 4,664 - -47.5°
